Evenes, Norway

5:03 AM CEST on October 18, 2018 (GMT +0200)
Evenes

Weather History for ENEV - February, 2018

Change the Weather History Date:

Tuesday, February 13, 2018

  Actual Average Record
Temperature  
Mean Temperature 28 °F -  
Max Temperature 32 °F 29 °F 43 °F (2017)
Min Temperature 23 °F 19 °F 0 °F (2007)
Degree Days  
Heating Degree Days 38    
Moisture  
Dew Point 19 °F    
Average Humidity 63    
Maximum Humidity 100    
Minimum Humidity 40    
Precipitation  
Precipitation 0.00 in - - ()
Sea Level Pressure  
Sea Level Pressure 29.68 in    
Wind  
Wind Speed 11 mph ()    
Max Wind Speed 18 mph    
Max Gust Speed -    
Visibility 5.1 miles    
Events Snow    
Averages and records for this station are not official NWS values.
T = Trace of Precipitation, MM = Missing Value Source: Averaged Metar Reports

Daily Weather History Graph

Daily Weather History Graph

Search for Another Location

Airport or City:

Astronomy

Feb. 13, 2018 Rise Set
Actual Time 8:24 AM CET 3:52 PM CET
Civil Twilight 7:19 AM CET 4:56 PM CET
Nautical Twilight 6:12 AM CET 6:04 PM CET
Astronomical Twilight 5:06 AM CET 7:10 PM CET
Moon 8:22 AM CET (2/13) 12:12 PM CET (2/13)
Length of Visible Light 9h 37m
Length of Day
7h 27m
Waning Crescent, 5% of the Moon is Illuminated
Feb 13
Waning Crescent
Feb 15
New
Feb 23
First Quarter
Mar 2
Full
Mar 9
Last Quarter

Hourly Weather History & Observations

Time (CET) Temp. Windchill Dew Point Humidity Pressure Visibility Wind Dir Wind Speed Gust Speed Precip Events Conditions
1:00 AM 24 °F - 11 °F 45% 29.63 in - ESE 13.4 mph - -  
3:00 AM 24 °F - 11 °F 44% 29.64 in - ESE 13.4 mph - -  
4:00 AM 25 °F - 12 °F 44% 29.63 in - SE 13.4 mph - -  
5:50 AM 26.6 °F 15.2 °F 14.0 °F 59% 29.62 in 6.2 mi SE 13.8 mph - N/A   Mostly Cloudy
6:50 AM 28.4 °F 17.5 °F 14.0 °F 55% 29.62 in 6.2 mi SE 13.8 mph - N/A   Mostly Cloudy
7:00 AM 27 °F - 15 °F 46% 29.63 in - SE 13.4 mph - -  
7:50 AM 26.6 °F 14.7 °F 12.2 °F 55% 29.62 in 6.2 mi SE 15.0 mph - N/A   Mostly Cloudy
8:00 AM 28 °F - 15 °F 44% 29.63 in - SE 13.4 mph - -  
8:50 AM 28.4 °F 18.0 °F 14.0 °F 55% 29.62 in 6.2 mi SE 12.7 mph - N/A   Scattered Clouds
9:00 AM 28 °F - 15 °F 44% 29.64 in - SE 13.4 mph - -  
9:50 AM 28.4 °F 17.5 °F 12.2 °F 51% 29.62 in 6.2 mi SE 13.8 mph - N/A   Scattered Clouds
10:00 AM 29 °F - 15 °F 43% 29.63 in - ESE 13.4 mph - -  
10:50 AM 28.4 °F 18.0 °F 12.2 °F 51% 29.62 in 6.2 mi SE 12.7 mph - N/A   Partly Cloudy
11:00 AM 29 °F - 16 °F 44% 29.64 in - SE 11.2 mph - -  
11:50 AM 30.2 °F 18.1 °F 14.0 °F 51% 29.62 in - ESE 18.4 mph - N/A   Clear
12:00 PM 30 °F - 17 °F 46% 29.64 in - ESE 15.7 mph - -  
12:50 PM 32.0 °F 23.0 °F 15.8 °F 51% 29.62 in 6.2 mi SE 11.5 mph - N/A   Scattered Clouds
1:00 PM 32 °F - 17 °F 40% 29.65 in - South 13.4 mph - -  
1:50 PM 32.0 °F 21.6 °F 17.6 °F 55% 29.62 in 6.2 mi SSE 15.0 mph - N/A   Partly Cloudy
2:50 PM 32.0 °F 24.2 °F 19.4 °F 60% 29.65 in 5.0 mi SSW 9.2 mph - N/A Snow Light Snow Showers
3:00 PM 30 °F - 25 °F 74% 29.68 in - SW 8.9 mph - -  
3:20 PM 28.4 °F 22.2 °F 26.6 °F 93% 29.68 in 1.2 mi SSW 5.8 mph - N/A Snow Light Snow Grains
3:50 PM 28.4 °F 20.4 °F 26.6 °F 93% 29.68 in 0.6 mi South 8.1 mph - N/A Snow Snow Grains
4:00 PM 29 °F - 28 °F 93% 29.70 in - SSE 8.9 mph - -  
4:50 PM 28.4 °F 19.1 °F 26.6 °F 93% 29.71 in 1.3 mi SSE 10.4 mph - N/A Snow Light Snow Showers
5:20 PM 28.4 °F 21.2 °F 28.4 °F 100% 29.71 in 1.5 mi SSE 6.9 mph - N/A Snow Light Snow Showers
5:50 PM 30.2 °F 21.9 °F 26.6 °F 86% 29.71 in 6.2 mi SE 9.2 mph - N/A Snow Light Snow
6:00 PM 30 °F - 28 °F 87% 29.74 in - SE 8.9 mph - -  
6:50 PM 30.2 °F 23.4 °F 26.6 °F 86% 29.71 in 6.2 mi SE 6.9 mph - N/A Snow Light Snow
7:00 PM 30 °F - 26 °F 78% 29.74 in - SSE 6.7 mph - -  
7:50 PM 30.2 °F 23.4 °F 24.8 °F 80% 29.74 in 6.2 mi South 6.9 mph - N/A   Mostly Cloudy
8:00 PM 30 °F - 24 °F 72% 29.75 in - SSE 6.7 mph - -  
8:50 PM 28.4 °F 21.2 °F 21.2 °F 74% 29.74 in 6.2 mi SE 6.9 mph - N/A   Scattered Clouds
9:50 PM 28.4 °F 20.4 °F 19.4 °F 69% 29.74 in - South 8.1 mph - N/A   Clear
10:00 PM 28 °F - 21 °F 64% 29.77 in - SSE 8.9 mph - -  
10:50 PM 28.4 °F 20.4 °F 17.6 °F 64% 29.77 in 6.2 mi South 8.1 mph - N/A   Unknown
11:00 PM 28 °F - 19 °F 57% 29.78 in - South 8.9 mph - -  
11:20 PM 28.4 °F 18.0 °F 17.6 °F 64% 29.74 in 6.2 mi SE 12.7 mph - N/A   Unknown
11:50 PM 28.4 °F 17.5 °F 17.6 °F 64% 29.74 in 6.2 mi SE 13.8 mph - N/A   Unknown